SL-8 R/B

Satellite information

Favourite Embed

Satellite Type and Status

ROCKET BODYIN ORBIT

Key statistics

Satellite SL-8 R/B at a glance.

Uptime

17028

Days in orbit

Revolutions

≈ 13.8

Per day

Orbit

LEO

Low Earth Orbit

Inclination

83.0

Latest

Satellite identification and parameters

Extended collection of information and parameters for SL-8 R/B.

Object identification

Identified? True

Debris? False

Object name: SL-8 R/B

International designator: 1979-026B

Object number (NORAD): 11309

Object ID (CCSDS): 11309

Country: COMMONWEALTH OF INDEPENDENT STATES (CIS)

Current information (Y/N): Y

RCS size: LARGE

Orbital parameters

Period: 104.537 minutes

Inclination: 82.9658 deg

SMA: 7350.906 km

Apoapsis: 987.303 km

Periapsis: 958.239 km

RAAN: 279.8525 deg

Eccentricy: 0.00197689

Argument of periapsis: 149.5131 deg

Mean anomaly: 210.718 deg

Mean motion: 13.77499532 rev/day

Mean motion (dot): 0.00000143 rev/day2

B* drag term: 0.00012766132 1/REarth

Two-line elements (TLE)

Creation date: Nov. 1, 2025, 7:40 p.m.

Reference frame: TEME

Reference center: EARTH

Epoch: Nov. 1, 2025, 10:15 a.m. UTC

TLE line 0: 0 SL-8 R/B

TLE line 1: 1 11309U 79026B 25305.42756605 .00000143 00000-0 12766-3 0 9991

TLE line 2: 2 11309 82.9658 279.8525 0019769 149.5131 210.7180 13.77499532341005

Live tracking on map

Real-time ground track for satellite SL-8 R/B.

In-orbit conjunctions

A list of the most updated potential collisions computed for object SL-8 R/B.

Target Orbit TCA Probability of collision Miss distance Type
FENGYUN 1C DEB SSO 2024-09-16 00:29:30 0.0003153304 341.0 (m) DEBRIS

Associated space launch

Navigation satellite providing location information for the Tsiklon-B navigation system

SL-8 R/B was lifted into orbit during the mission ‘Kosmos-3M | Parus 18’, on board a Kosmos-3M space rocket.

The launch took place on March 21, 1979, 4:13 a.m. from 132/2.

For more information about the launch, click the button.

Launch to space Kosmos-3M | Parus 18
Kosmos-3M | Parus 18

Agency: N/A

Status: Launch Successful

Launch date: March 21, 1979, 4:13 a.m. UTC

Rocket: Kosmos-3M

Launch pad: 132/2

Location: Plesetsk Cosmodrome, Russian Federation

...

Latest news about this satellite

There are no fresh news available about this satellite. Check back as we update our databases every day.


Newsletter sign-up

Weekly statistics, charts and insights to help you stay on top of the space industry.